Погода в Гордино

Россия / Кировская область     58°33′47″N   53°33′02″E
темп.,
°C
ветер,
м/с
пор.,
м/с
влажн.,
%
обл.,
%
осадки,
мм/ч
давл.,
гПа
погр.,
м
14 апреля, ср
ср1400:00+7зюз41198100 0.0 1030333
03:00+6зюз3997100 0.0 1030373
06:00+6юз379397 0.0 1030306
09:00+9юз468155 0.0 1029289
12:00+13юз466754 0.0 1028437
15:00+14юз476625 0.0 1027560
18:00+10ююз26925 0.0 1026116
21:00+8ююз2109391 0.0 1025183
15 апреля, чт
чт1500:00+7юз310928 0.0 1024199
03:00+6юз310935 0.0 1023179
06:00+7юз310915 0.0 1022262
09:00+12юз47785 0.0 1020472
12:00+15зюз467298 0.0 10191014
15:00+13зюз3681100 1.2 1019562
18:00+7ссв4988100 1.3 1021543
21:00+4св41086100 3.6 1024684
16 апреля, пт
пт1600:00+3св41077100 1.0 1025777
03:00+2св41168100 1.0 1027707
06:00+1св410730 0.0 1029567
09:00+4св46500 0.0 1029866
12:00+7св45415 0.0 10291201
15:00+7ссв34385 0.0 10281318
18:00+5ссв22565 0.0 102815
21:00+2с22695 0.0 102944
17 апреля, сб
сб1700:000ссз22702 0.0 102921
03:000сз25740 0.0 1029103
06:00+2сз38725 0.0 1029285
09:00+6ссз46585 0.0 10281025
12:00+8сз474988 0.0 10271776
15:00+8ссз595297 0.0 10261755
18:00+6ссз49568 0.0 1025459
21:00+4сз3116974 0.0 1026420
18 апреля, вс
вс1800:00+2зсз312765 0.0 1025399
03:00+2сз412825 0.0 1025645
06:00+1с4118515 0.1 1027919
09:00+2ссв58495 0.1 10281501
12:00+3ссв573546 0.0 10301954
15:00+4ссв5732100 0.0 10312280
18:00+1св47425 0.0 1033962
21:00−2св27590 0.0 1035213